User: anonymous   Login
Location: Unspecified
(0.0000°N, 0.0000°E)
Time: 14:00:10
(UTC+00:00)
Language:

OPTUS D1 - Orbit

View from above orbital plane
View from above orbital plane
View from above satellite
View from above satellite

Ground track
Ground track

The orbit data is extracted from the following two-line orbital elements,

1 29495U 06043B   17235.02754255 -.00000142  00000-0  00000+0 0  9997
2 29495   0.0186 232.1868 0003311 279.6753 349.5607  1.00269715 39853
Epoch (UTC): 23 August 2017 00:39:39
Eccentricity: 0.0003311
inclination: 0.0186°
perigee height: 35773 km
apogee height: 35801 km
right ascension of ascending node: 232.1868°
argument of perigee: 279.6753°
revolutions per day: 1.00269715
mean anomaly at epoch: 349.5607°
orbit number at epoch: 3985

The dashed part of the orbit path shows where the satellite is in the earth's shadow,  

DLR